User: anonymous   Login
Location: Kalberh�ni
(46.4610°N, 7.2453°E)
Time: 19:33:07
(UTC+00:00)
Language:

Cosmos 1943 Rocket - Orbit

View from above orbital plane
View from above orbital plane
View from above satellite
View from above satellite

Ground track
Ground track

The orbit data is extracted from the following two-line orbital elements,

1 19120U 88039B   21261.46374566 -.00000057  00000-0 -43512-5 0  9998
2 19120  71.0115 280.7167 0023462 320.3059  39.6348 14.19225890726638
Epoch (UTC): 18 September 2021 11:07:47
Eccentricity: 0.0023462
inclination: 71.0115°
perigee height: 811 km
apogee height: 845 km
right ascension of ascending node: 280.7167°
argument of perigee: 320.3059°
revolutions per day: 14.19225890
mean anomaly at epoch: 39.6348°
orbit number at epoch: 72663

The dashed part of the orbit path shows where the satellite is in the earth's shadow,  

DLR